| time (UTC) | temp F | wind direction | speed knots | gust knots | rain 1hr in | rain 24hr in | rain mn in | humidity % | barometer mb |
| 20260507155822 | 56 | 0 | 5.2 | 11.3 | 0.00 | 0.00 | 0.00 | 62 | 1023.3 |
| 20260507155323 | 55 | 266 | 6.1 | 10.4 | 0.00 | 0.00 | 0.00 | 63 | 1023.4 |
| 20260507154818 | 55 | 207 | 6.1 | 9.6 | 0.00 | 0.00 | 0.00 | 65 | 1023.5 |
| 20260507154548 | 55 | 269 | 5.2 | 8.7 | 0.00 | 0.00 | 0.00 | 67 | 1023.6 |
| 20260507153811 | 54 | 0 | 5.2 | 10.4 | 0.00 | 0.00 | 0.00 | 69 | 1023.6 |
| 20260507153312 | 53 | 169 | 5.2 | 10.4 | 0.00 | 0.00 | 0.00 | 72 | 1023.6 |
| 20260507152814 | 53 | 255 | 5.2 | 11.3 | 0.00 | 0.00 | 0.00 | 74 | 1023.7 |
| 20260507152312 | 52 | 0 | 4.3 | 11.3 | 0.00 | 0.00 | 0.00 | 76 | 1023.9 |
| 20260507152044 | 51 | 256 | 4.3 | 7.8 | 0.00 | 0.00 | 0.00 | 79 | 1023.9 |
| 20260507151310 | 50 | 219 | 4.3 | 7.8 | 0.00 | 0.00 | 0.00 | 81 | 1023.9 |
| 20260507150808 | 49 | 289 | 3.5 | 6.1 | 0.00 | 0.00 | 0.00 | 83 | 1023.9 |
| 20260507150304 | 48 | 301 | 3.5 | 7.0 | 0.00 | 0.00 | 0.00 | 84 | 1023.9 |
| 20260507145803 | 48 | 297 | 3.5 | 7.0 | 0.00 | 0.00 | 0.00 | 85 | 1023.9 |
| 20260507145301 | 47 | 300 | 3.5 | 7.0 | 0.00 | 0.00 | 0.00 | 85 | 1024.0 |
| 20260507144801 | 47 | 312 | 3.5 | 7.0 | 0.00 | 0.00 | 0.00 | 85 | 1024.1 |
| 20260507144302 | 46 | 311 | 3.5 | 7.0 | 0.00 | 0.00 | 0.00 | 86 | 1024.1 |
| 20260507144031 | 46 | 313 | 3.5 | 6.1 | 0.00 | 0.00 | 0.00 | 86 | 1024.2 |
| 20260507143530 | 46 | 312 | 3.5 | 6.1 | 0.00 | 0.00 | 0.00 | 87 | 1024.2 |
| 20260507142755 | 45 | 317 | 2.6 | 7.0 | 0.00 | 0.00 | 0.00 | 87 | 1024.2 |
| 20260507142244 | 45 | 317 | 2.6 | 7.0 | 0.00 | 0.00 | 0.00 | 87 | 1024.3 |
| 20260507141743 | 44 | 315 | 3.5 | 6.1 | 0.00 | 0.00 | 0.00 | 87 | 1024.3 |
| 20260507141242 | 44 | 311 | 3.5 | 6.1 | 0.00 | 0.00 | 0.00 | 87 | 1024.4 |
| 20260507140741 | 44 | 304 | 4.3 | 7.0 | 0.00 | 0.00 | 0.00 | 87 | 1024.4 |
| 20260507140236 | 44 | 305 | 4.3 | 7.0 | 0.00 | 0.00 | 0.00 | 87 | 1024.4 |
| 20260507135735 | 43 | 309 | 3.5 | 7.8 | 0.00 | 0.00 | 0.00 | 87 | 1024.6 |
| 20260507135235 | 43 | 302 | 3.5 | 7.8 | 0.00 | 0.00 | 0.00 | 87 | 1024.5 |
| 20260507134734 | 43 | 314 | 3.5 | 6.1 | 0.00 | 0.00 | 0.00 | 87 | 1024.4 |
| 20260507134234 | 43 | 0 | 3.5 | 9.6 | 0.00 | 0.00 | 0.00 | 87 | 1024.5 |
| 20260507133732 | 42 | 311 | 4.3 | 9.6 | 0.00 | 0.00 | 0.00 | 86 | 1024.6 |
| 20260507133233 | 42 | 317 | 4.3 | 6.1 | 0.00 | 0.00 | 0.00 | 86 | 1024.6 |
| 20260507133228 | 42 | 319 | 4.3 | 7.8 | 0.00 | 0.00 | 0.00 | 86 | 1024.5 |
| 20260507132226 | 42 | 313 | 3.5 | 7.8 | 0.00 | 0.00 | 0.00 | 86 | 1024.5 |
| 20260507131727 | 42 | 322 | 2.6 | 6.1 | 0.00 | 0.00 | 0.00 | 86 | 1024.6 |
| 20260507131723 | 42 | 314 | 3.5 | 6.1 | 0.00 | 0.00 | 0.00 | 86 | 1024.6 |
| 20260507130718 | 41 | 314 | 2.6 | 5.2 | 0.00 | 0.00 | 0.00 | 86 | 1024.6 |
| 20260507130214 | 41 | 311 | 2.6 | 5.2 | 0.00 | 0.00 | 0.00 | 86 | 1024.5 |
| 20260507125943 | 41 | 311 | 2.6 | 5.2 | 0.00 | 0.00 | 0.00 | 85 | 1024.3 |
| 20260507125209 | 41 | 309 | 3.5 | 7.8 | 0.00 | 0.00 | 0.00 | 85 | 1024.4 |
| 20260507124708 | 41 | 312 | 3.5 | 7.8 | 0.00 | 0.00 | 0.00 | 85 | 1024.3 |
| 20260507124208 | 41 | 0 | 3.5 | 7.8 | 0.00 | 0.00 | 0.00 | 85 | 1024.4 |
| 20260507123709 | 41 | 352 | 2.6 | 5.2 | 0.00 | 0.00 | 0.00 | 85 | 1024.3 |
| 20260507123208 | 40 | 357 | 2.6 | 5.2 | 0.00 | 0.00 | 0.00 | 85 | 1024.2 |
| 20260507122706 | 40 | 38 | 1.7 | 3.5 | 0.00 | 0.00 | 0.00 | 85 | 1024.1 |
| 20260507122206 | 40 | 43 | 1.7 | 4.3 | 0.00 | 0.00 | 0.00 | 84 | 1024.0 |
| 20260507121936 | 40 | 49 | 1.7 | 4.3 | 0.00 | 0.00 | 0.00 | 84 | 1024.0 |
| 20260507121201 | 40 | 51 | 2.6 | 5.2 | 0.00 | 0.00 | 0.00 | 84 | 1024.0 |
| 20260507120928 | 40 | 30 | 2.6 | 5.2 | 0.00 | 0.00 | 0.00 | 84 | 1024.0 |
| 20260507120154 | 40 | 0 | 1.7 | 3.5 | 0.00 | 0.00 | 0.00 | 84 | 1024.0 |
| 20260507115654 | 40 | 0 | 1.7 | 3.5 | 0.00 | 0.00 | 0.00 | 83 | 1024.0 |
| 20260507115155 | 40 | 0 | 1.7 | 3.5 | 0.00 | 0.00 | 0.00 | 84 | 1023.9 |
| 20260507114649 | 40 | 28 | 0.9 | 2.6 | 0.00 | 0.00 | 0.00 | 83 | 1023.8 |
| 20260507114145 | 41 | 30 | 0.9 | 4.3 | 0.00 | 0.00 | 0.00 | 83 | 1023.8 |
| 20260507113633 | 41 | 32 | 1.7 | 4.3 | 0.00 | 0.00 | 0.00 | 83 | 1023.8 |
| 20260507113131 | 41 | 0 | 1.7 | 3.5 | 0.00 | 0.00 | 0.00 | 83 | 1023.6 |
| 20260507112632 | 41 | 32 | 1.7 | 3.5 | 0.00 | 0.00 | 0.00 | 83 | 1023.7 |
| 20260507112132 | 41 | 0 | 1.7 | 4.3 | 0.00 | 0.00 | 0.00 | 83 | 1023.8 |
| 20260507111633 | 41 | 0 | 1.7 | 4.3 | 0.00 | 0.00 | 0.00 | 82 | 1023.9 |
| 20260507111130 | 41 | 11 | 1.7 | 3.5 | 0.00 | 0.00 | 0.00 | 82 | 1023.9 |
| 20260507110628 | 41 | 12 | 1.7 | 3.5 | 0.00 | 0.00 | 0.00 | 82 | 1024.0 |
| 20260507110127 | 41 | 11 | 1.7 | 4.3 | 0.00 | 0.00 | 0.00 | 82 | 1023.8 |
| 20260507105626 | 41 | 10 | 1.7 | 4.3 | 0.00 | 0.00 | 0.00 | 82 | 1024.0 |
| 20260507105126 | 41 | 0 | 1.7 | 4.3 | 0.00 | 0.00 | 0.00 | 81 | 1023.9 |
| 20260507104620 | 42 | 13 | 1.7 | 4.3 | 0.00 | 0.00 | 0.00 | 81 | 1023.8 |
| 20260507104349 | 42 | 12 | 1.7 | 3.5 | 0.00 | 0.00 | 0.00 | 81 | 1023.8 |
| 20260507103619 | 42 | 10 | 0.9 | 2.6 | 0.00 | 0.00 | 0.00 | 81 | 1023.9 |
| 20260507103334 | 42 | 8 | 0.9 | 2.6 | 0.00 | 0.00 | 0.00 | 80 | 1023.8 |
| 20260507102601 | 42 | 8 | 0.9 | 1.7 | 0.00 | 0.00 | 0.00 | 80 | 1023.7 |
| 20260507102101 | 42 | 8 | 0.0 | 1.7 | 0.00 | 0.00 | 0.00 | 80 | 1023.8 |
| 20260507101557 | 42 | 8 | 0.0 | 0.9 | 0.00 | 0.00 | 0.00 | 80 | 1023.7 |
| 20260507101054 | 42 | 9 | 0.0 | 0.9 | 0.00 | 0.00 | 0.00 | 80 | 1023.8 |
| 20260507100555 | 42 | 11 | 0.0 | 0.9 | 0.00 | 0.00 | 0.00 | 80 | 1023.7 |
| 20260507100316 | 42 | 11 | 0.9 | 1.7 | 0.00 | 0.00 | 0.00 | 79 | 1023.7 |
| 20260507095505 | 42 | 11 | 0.9 | 3.5 | 0.00 | 0.00 | 0.00 | 79 | 1023.8 |
| 20260507095003 | 43 | 12 | 1.7 | 3.5 | 0.00 | 0.00 | 0.00 | 79 | 1023.8 |
| 20260507094455 | 43 | 15 | 1.7 | 4.3 | 0.00 | 0.00 | 0.00 | 79 | 1023.8 |
| 20260507093953 | 43 | 0 | 2.6 | 4.3 | 0.00 | 0.00 | 0.00 | 78 | 1023.7 |
| 20260507093440 | 43 | 0 | 2.6 | 5.2 | 0.00 | 0.00 | 0.00 | 78 | 1023.6 |
| 20260507093212 | 43 | 0 | 2.6 | 5.2 | 0.00 | 0.00 | 0.00 | 78 | 1023.8 |
| 20260507092434 | 44 | 10 | 2.6 | 5.2 | 0.00 | 0.00 | 0.00 | 77 | 1023.8 |
| 20260507091934 | 44 | 14 | 2.6 | 5.2 | 0.00 | 0.00 | 0.00 | 77 | 1023.7 |
| 20260507091434 | 44 | 0 | 2.6 | 5.2 | 0.00 | 0.00 | 0.00 | 77 | 1023.6 |
| 20260507090935 | 44 | 0 | 2.6 | 4.3 | 0.00 | 0.00 | 0.00 | 77 | 1023.7 |
| 20260507090432 | 44 | 9 | 2.6 | 4.3 | 0.00 | 0.00 | 0.00 | 76 | 1023.4 |
| 20260507085931 | 44 | 8 | 2.6 | 4.3 | 0.00 | 0.00 | 0.00 | 76 | 1023.4 |
| 20260507085430 | 44 | 0 | 1.7 | 4.3 | 0.00 | 0.00 | 0.00 | 76 | 1023.5 |
| 20260507084931 | 45 | 0 | 2.6 | 9.6 | 0.00 | 0.00 | 0.00 | 76 | 1023.2 |
| 20260507084651 | 45 | 9 | 2.6 | 9.6 | 0.00 | 0.00 | 0.00 | 75 | 1023.3 |
| 20260507083918 | 45 | 0 | 2.6 | 4.3 | 0.00 | 0.00 | 0.00 | 75 | 1023.3 |
| 20260507083418 | 45 | 0 | 2.6 | 3.5 | 0.00 | 0.00 | 0.00 | 75 | 1023.3 |
| 20260507083125 | 45 | 0 | 2.6 | 6.1 | 0.00 | 0.00 | 0.00 | 75 | 1023.2 |
| 20260507082354 | 45 | 0 | 2.6 | 6.1 | 0.00 | 0.00 | 0.00 | 76 | 1023.2 |
| 20260507081840 | 45 | 0 | 2.6 | 6.1 | 0.00 | 0.00 | 0.00 | 76 | 1023.1 |
| 20260507081333 | 45 | 14 | 2.6 | 5.2 | 0.00 | 0.00 | 0.00 | 76 | 1023.0 |
| 20260507080833 | 45 | 0 | 2.6 | 5.2 | 0.00 | 0.00 | 0.00 | 76 | 1023.1 |
| 20260507080329 | 45 | 0 | 2.6 | 5.2 | 0.00 | 0.00 | 0.00 | 76 | 1023.3 |
| 20260507075829 | 45 | 0 | 3.5 | 6.1 | 0.00 | 0.00 | 0.00 | 76 | 1023.1 |
| 20260507075330 | 45 | 0 | 3.5 | 6.1 | 0.00 | 0.00 | 0.00 | 76 | 1022.8 |
| 20260507074827 | 45 | 14 | 4.3 | 9.6 | 0.00 | 0.00 | 0.00 | 76 | 1022.8 |
| 20260507074558 | 45 | 16 | 6.1 | 9.6 | 0.00 | 0.00 | 0.00 | 76 | 1022.7 |
| 20260507073827 | 45 | 15 | 5.2 | 8.7 | 0.00 | 0.00 | 0.00 | 75 | 1022.9 |
| 20260507073328 | 45 | 15 | 5.2 | 7.8 | 0.00 | 0.00 | 0.00 | 75 | 1023.1 |
| 20260507073056 | 45 | 13 | 4.3 | 7.8 | 0.00 | 0.00 | 0.00 | 75 | 1023.6 |
| 20260507072323 | 45 | 0 | 3.5 | 7.0 | 0.00 | 0.00 | 0.00 | 75 | 1024.3 |
| 20260507072053 | 45 | 0 | 4.3 | 7.0 | 0.00 | 0.00 | 0.00 | 75 | 1024.2 |
| 20260507071309 | 45 | 0 | 4.3 | 6.1 | 0.00 | 0.00 | 0.00 | 75 | 1024.5 |
| 20260507071039 | 45 | 0 | 3.5 | 6.1 | 0.00 | 0.00 | 0.00 | 74 | 1024.2 |
| 20260507070308 | 45 | 0 | 2.6 | 4.3 | 0.00 | 0.00 | 0.00 | 74 | 1024.4 |
| 20260507065807 | 45 | 0 | 2.6 | 6.1 | 0.00 | 0.00 | 0.00 | 74 | 1024.5 |
| 20260507065306 | 45 | 0 | 3.5 | 6.1 | 0.00 | 0.00 | 0.00 | 74 | 1024.5 |
| 20260507064802 | 46 | 0 | 3.5 | 6.1 | 0.00 | 0.00 | 0.00 | 74 | 1024.5 |
| 20260507064257 | 46 | 0 | 4.3 | 7.8 | 0.00 | 0.00 | 0.00 | 74 | 1024.5 |
| 20260507063758 | 46 | 0 | 5.2 | 7.8 | 0.00 | 0.00 | 0.00 | 74 | 1024.4 |
| 20260507063754 | 46 | 0 | 5.2 | 7.8 | 0.00 | 0.00 | 0.00 | 73 | 1024.4 |
| 20260507063401 | 46 | 0 | 5.2 | 7.8 | 0.00 | 0.00 | 0.00 | 73 | 1024.6 |
| 20260507062248 | 46 | 6 | 5.2 | 9.6 | 0.00 | 0.00 | 0.00 | 73 | 1024.6 |
| 20260507061744 | 46 | 0 | 5.2 | 9.6 | 0.00 | 0.00 | 0.00 | 73 | 1024.7 |
| 20260507061242 | 46 | 0 | 4.3 | 8.7 | 0.00 | 0.00 | 0.00 | 73 | 1024.8 |
| 20260507060740 | 46 | 8 | 4.3 | 8.7 | 0.00 | 0.00 | 0.00 | 72 | 1024.4 |
| 20260507060511 | 46 | 0 | 5.2 | 8.7 | 0.00 | 0.00 | 0.00 | 72 | 1024.5 |
| 20260507055735 | 46 | 0 | 5.2 | 8.7 | 0.00 | 0.00 | 0.00 | 72 | 1024.3 |
| 20260507055235 | 46 | 6 | 5.2 | 8.7 | 0.00 | 0.00 | 0.00 | 72 | 1024.0 |
| 20260507054734 | 46 | 0 | 6.1 | 11.3 | 0.00 | 0.00 | 0.00 | 71 | 1023.8 |
| 20260507054232 | 46 | 0 | 7.0 | 13.0 | 0.00 | 0.00 | 0.00 | 71 | 1023.6 |
| 20260507053731 | 46 | 0 | 6.1 | 13.0 | 0.00 | 0.00 | 0.00 | 70 | 1023.3 |
| 20260507053231 | 46 | 0 | 6.1 | 9.6 | 0.00 | 0.00 | 0.00 | 70 | 1023.3 |
| 20260507053002 | 47 | 18 | 6.1 | 10.4 | 0.00 | 0.00 | 0.00 | 69 | 1023.7 |
| 20260507052231 | 47 | 0 | 5.2 | 10.4 | 0.00 | 0.00 | 0.00 | 69 | 1023.6 |
| 20260507051729 | 47 | 0 | 6.1 | 11.3 | 0.00 | 0.00 | 0.00 | 69 | 1023.6 |
| 20260507051229 | 47 | 0 | 7.8 | 15.6 | 0.00 | 0.00 | 0.00 | 68 | 1023.7 |
| 20260507050727 | 47 | 0 | 7.8 | 15.6 | 0.00 | 0.00 | 0.00 | 68 | 1023.5 |
| 20260507050454 | 47 | 0 | 7.8 | 11.3 | 0.00 | 0.00 | 0.00 | 68 | 1023.7 |
| 20260507050327 | 47 | 8 | 7.8 | 12.2 | 0.00 | 0.00 | 0.00 | 68 | 1023.7 |
| 20260507045450 | 47 | 0 | 7.8 | 13.0 | 0.00 | 0.00 | 0.00 | 68 | 1023.4 |
| 20260507044717 | 47 | 0 | 7.8 | 13.0 | 0.00 | 0.00 | 0.00 | 68 | 1023.3 |
| 20260507044218 | 47 | 1 | 7.8 | 13.0 | 0.00 | 0.00 | 0.00 | 68 | 1023.3 |
| 20260507043718 | 47 | 0 | 7.8 | 12.2 | 0.00 | 0.00 | 0.00 | 68 | 1023.1 |
| 20260507043218 | 47 | 4 | 7.8 | 13.0 | 0.00 | 0.00 | 0.00 | 68 | 1023.0 |
| 20260507042715 | 47 | 8 | 7.8 | 13.9 | 0.00 | 0.00 | 0.00 | 68 | 1022.8 |
| 20260507042215 | 47 | 13 | 8.7 | 13.9 | 0.00 | 0.00 | 0.00 | 68 | 1022.8 |
| 20260507041716 | 48 | 0 | 8.7 | 14.8 | 0.00 | 0.00 | 0.00 | 68 | 1023.1 |
| 20260507041215 | 48 | 0 | 7.8 | 14.8 | 0.00 | 0.00 | 0.00 | 68 | 1022.9 |
| 20260507040714 | 48 | 23 | 8.7 | 13.0 | 0.00 | 0.00 | 0.00 | 67 | 1022.8 |
| 20260507040212 | 48 | 0 | 7.8 | 14.8 | 0.00 | 0.00 | 0.00 | 67 | 1022.5 |
| 20260507035709 | 48 | 8 | 7.8 | 14.8 | 0.00 | 0.00 | 0.00 | 67 | 1022.3 |
| 20260507035436 | 49 | 7 | 7.8 | 13.0 | 0.00 | 0.00 | 0.00 | 67 | 1022.1 |
| 20260507034705 | 49 | 12 | 7.0 | 13.0 | 0.00 | 0.00 | 0.00 | 67 | 1021.9 |
| 20260507034204 | 49 | 0 | 7.8 | 13.0 | 0.00 | 0.00 | 0.00 | 67 | 1021.9 |
| 20260507033936 | 49 | 8 | 8.7 | 14.8 | 0.00 | 0.00 | 0.00 | 67 | 1022.2 |
| 20260507033816 | 49 | 0 | 9.6 | 14.8 | 0.00 | 0.00 | 0.00 | 67 | 1022.0 |
| 20260507032704 | 50 | 0 | 9.6 | 14.8 | 0.00 | 0.00 | 0.00 | 66 | 1021.8 |
| 20260507032201 | 50 | 1 | 8.7 | 16.5 | 0.00 | 0.00 | 0.00 | 66 | 1022.0 |
| 20260507031658 | 51 | 8 | 8.7 | 16.5 | 0.00 | 0.00 | 0.00 | 66 | 1021.6 |
| 20260507031157 | 51 | 4 | 7.8 | 14.8 | 0.00 | 0.00 | 0.00 | 65 | 1021.6 |
| 20260507030656 | 52 | 0 | 7.8 | 13.9 | 0.00 | 0.00 | 0.00 | 66 | 1021.7 |
| 20260507030152 | 52 | 6 | 8.7 | 13.9 | 0.00 | 0.00 | 0.00 | 64 | 1021.4 |
| 20260507025649 | 52 | 0 | 9.6 | 14.8 | 0.00 | 0.00 | 0.00 | 63 | 1021.3 |
| 20260507025148 | 53 | 6 | 9.6 | 14.8 | 0.00 | 0.00 | 0.00 | 61 | 1021.5 |
| 20260507024647 | 53 | 0 | 10.4 | 19.1 | 0.00 | 0.00 | 0.00 | 60 | 1021.4 |
| 20260507024147 | 54 | 4 | 11.3 | 19.1 | 0.00 | 0.00 | 0.00 | 57 | 1021.1 |
| 20260507023647 | 55 | 8 | 10.4 | 20.0 | 0.00 | 0.00 | 0.00 | 55 | 1021.0 |
| 20260507023145 | 56 | 6 | 10.4 | 20.0 | 0.00 | 0.00 | 0.00 | 52 | 1020.4 |
| 20260507022647 | 57 | 12 | 7.8 | 13.9 | 0.00 | 0.00 | 0.00 | 51 | 1020.2 |
| 20260507022642 | 57 | 8 | 9.6 | 16.5 | 0.00 | 0.00 | 0.00 | 51 | 1020.0 |
| 20260507021642 | 57 | 9 | 7.0 | 13.9 | 0.00 | 0.00 | 0.00 | 50 | 1020.3 |
| 20260507021141 | 57 | 7 | 7.8 | 16.5 | 0.00 | 0.00 | 0.00 | 50 | 1020.0 |
| 20260507020645 | 58 | 0 | 7.8 | 14.8 | 0.00 | 0.00 | 0.00 | 50 | 1019.5 |
| 20260507020641 | 57 | 7 | 8.7 | 16.5 | 0.00 | 0.00 | 0.00 | 50 | 1019.7 |
| 20260507015908 | 58 | 8 | 7.8 | 14.8 | 0.00 | 0.00 | 0.00 | 50 | 1019.0 |
| 20260507015137 | 58 | 39 | 7.8 | 14.8 | 0.00 | 0.00 | 0.00 | 49 | 1018.6 |
| 20260507014635 | 58 | 34 | 7.8 | 14.8 | 0.00 | 0.00 | 0.00 | 49 | 1018.4 |
| 20260507014135 | 58 | 0 | 8.7 | 15.6 | 0.00 | 0.00 | 0.00 | 50 | 1018.4 |
| 20260507013636 | 58 | 23 | 9.6 | 18.2 | 0.00 | 0.00 | 0.00 | 49 | 1018.0 |
| 20260507013134 | 58 | 30 | 8.7 | 18.2 | 0.00 | 0.00 | 0.00 | 49 | 1017.8 |
| 20260507012635 | 58 | 30 | 10.4 | 20.0 | 0.00 | 0.00 | 0.00 | 48 | 1017.4 |
| 20260507012135 | 59 | 40 | 11.3 | 20.0 | 0.00 | 0.00 | 0.00 | 48 | 1017.2 |
| 20260507011636 | 59 | 0 | 9.6 | 15.6 | 0.00 | 0.00 | 0.00 | 48 | 1017.0 |
| 20260507011134 | 59 | 0 | 8.7 | 17.4 | 0.00 | 0.00 | 0.00 | 48 | 1017.0 |
| 20260507010634 | 59 | 15 | 9.6 | 18.2 | 0.00 | 0.00 | 0.00 | 48 | 1016.7 |
| 20260507010136 | 59 | 0 | 10.4 | 18.2 | 0.00 | 0.00 | 0.00 | 47 | 1016.3 |
| 20260507005633 | 60 | 11 | 11.3 | 18.2 | 0.00 | 0.00 | 0.00 | 47 | 1016.2 |
| 20260507005131 | 60 | 13 | 11.3 | 18.2 | 0.00 | 0.00 | 0.00 | 46 | 1016.1 |
| 20260507004630 | 61 | 7 | 9.6 | 16.5 | 0.00 | 0.00 | 0.00 | 46 | 1015.9 |
| 20260507004131 | 61 | 0 | 9.6 | 15.6 | 0.00 | 0.00 | 0.00 | 46 | 1015.8 |
| 20260507003632 | 60 | 0 | 12.2 | 19.1 | 0.00 | 0.00 | 0.00 | 46 | 1015.7 |
| 20260507003129 | 60 | 0 | 13.9 | 22.6 | 0.00 | 0.00 | 0.00 | 46 | 1015.6 |
| 20260507002632 | 61 | 0 | 13.9 | 22.6 | 0.00 | 0.00 | 0.00 | 44 | 1015.7 |
| 20260507002626 | 61 | 0 | 14.8 | 22.6 | 0.00 | 0.00 | 0.00 | 45 | 1015.7 |
| 20260507001622 | 62 | 0 | 12.2 | 20.9 | 0.00 | 0.00 | 0.00 | 43 | 1015.4 |
| 20260507001124 | 62 | 0 | 13.0 | 20.0 | 0.00 | 0.00 | 0.00 | 43 | 1015.4 |
| 20260507000852 | 63 | 0 | 12.2 | 18.2 | 0.00 | 0.00 | 0.00 | 43 | 1015.4 |
| 20260507000352 | 63 | 0 | 12.2 | 20.0 | 0.00 | 0.00 | 0.00 | 42 | 1015.2 |
| 20260506235622 | 63 | 0 | 11.3 | 20.0 | 0.00 | 0.00 | 0.00 | 42 | 1014.9 |
| 20260506235120 | 63 | 0 | 12.2 | 19.1 | 0.00 | 0.00 | 0.00 | 42 | 1014.8 |
| 20260506234620 | 64 | 76 | 13.0 | 19.1 | 0.00 | 0.00 | 0.00 | 41 | 1014.7 |
| 20260506234122 | 64 | 0 | 11.3 | 18.2 | 0.00 | 0.00 | 0.00 | 40 | 1014.7 |
| 20260506233619 | 64 | 84 | 12.2 | 18.2 | 0.00 | 0.00 | 0.00 | 40 | 1014.7 |
| 20260506233118 | 64 | 112 | 12.2 | 18.2 | 0.00 | 0.00 | 0.00 | 41 | 1014.7 |
| 20260506232616 | 64 | 86 | 12.2 | 20.0 | 0.00 | 0.00 | 0.00 | 41 | 1014.8 |
| 20260506232115 | 64 | 0 | 12.2 | 24.3 | 0.00 | 0.00 | 0.00 | 41 | 1014.9 |
| 20260506231620 | 65 | 0 | 13.0 | 21.7 | 0.00 | 0.00 | 0.00 | 40 | 1014.8 |
| 20260506231615 | 64 | 0 | 12.2 | 24.3 | 0.00 | 0.00 | 0.00 | 40 | 1014.9 |
| 20260506230613 | 65 | 0 | 12.2 | 20.0 | 0.00 | 0.00 | 0.00 | 40 | 1014.8 |
| 20260506230343 | 65 | 0 | 10.4 | 17.4 | 0.00 | 0.00 | 0.00 | 39 | 1014.7 |
| 20260506225609 | 65 | 0 | 9.6 | 17.4 | 0.00 | 0.00 | 0.00 | 39 | 1014.7 |
| 20260506225109 | 65 | 0 | 10.4 | 17.4 | 0.00 | 0.00 | 0.00 | 39 | 1014.6 |
| 20260506224606 | 65 | 0 | 12.2 | 17.4 | 0.00 | 0.00 | 0.00 | 39 | 1014.4 |
| 20260506224105 | 65 | 0 | 12.2 | 17.4 | 0.00 | 0.00 | 0.00 | 39 | 1014.5 |
| 20260506223605 | 65 | 0 | 11.3 | 17.4 | 0.00 | 0.00 | 0.00 | 39 | 1014.4 |
| 20260506223106 | 65 | 91 | 12.2 | 19.1 | 0.00 | 0.00 | 0.00 | 39 | 1014.5 |
| 20260506222555 | 65 | 0 | 13.0 | 20.0 | 0.00 | 0.00 | 0.00 | 39 | 1014.5 |
| 20260506222052 | 65 | 49 | 12.2 | 20.0 | 0.00 | 0.00 | 0.00 | 38 | 1014.8 |
| 20260506221553 | 66 | 0 | 10.4 | 20.0 | 0.00 | 0.00 | 0.00 | 37 | 1014.8 |
| 20260506221053 | 67 | 0 | 8.7 | 17.4 | 0.00 | 0.00 | 0.00 | 36 | 1014.7 |
| 20260506220553 | 68 | 0 | 8.7 | 13.9 | 0.00 | 0.00 | 0.00 | 35 | 1014.6 |
| 20260506220052 | 68 | 0 | 8.7 | 13.9 | 0.00 | 0.00 | 0.00 | 36 | 1014.6 |
| 20260506215553 | 67 | 0 | 7.8 | 13.0 | 0.00 | 0.00 | 0.00 | 36 | 1014.7 |
| 20260506215323 | 67 | 65 | 7.8 | 13.0 | 0.00 | 0.00 | 0.00 | 36 | 1014.6 |
| 20260506214552 | 67 | 0 | 6.1 | 12.2 | 0.00 | 0.00 | 0.00 | 36 | 1014.6 |
| 20260506214052 | 67 | 82 | 6.1 | 12.2 | 0.00 | 0.00 | 0.00 | 36 | 1014.6 |
| 20260506213550 | 67 | 0 | 7.0 | 16.5 | 0.00 | 0.00 | 0.00 | 36 | 1014.6 |
| 20260506213044 | 67 | 56 | 7.8 | 16.5 | 0.00 | 0.00 | 0.00 | 36 | 1014.8 |
| 20260506212813 | 67 | 0 | 6.1 | 10.4 | 0.00 | 0.00 | 0.00 | 37 | 1014.7 |
| 20260506212313 | 66 | 67 | 5.2 | 11.3 | 0.00 | 0.00 | 0.00 | 37 | 1014.9 |
| 20260506211543 | 66 | 65 | 6.1 | 14.8 | 0.00 | 0.00 | 0.00 | 37 | 1015.0 |
| 20260506211313 | 66 | 0 | 7.0 | 14.8 | 0.00 | 0.00 | 0.00 | 37 | 1015.1 |
| 20260506210541 | 67 | 0 | 7.0 | 12.2 | 0.00 | 0.00 | 0.00 | 37 | 1015.1 |
| 20260506210310 | 67 | 65 | 7.0 | 13.0 | 0.00 | 0.00 | 0.00 | 36 | 1015.0 |
| 20260506205526 | 67 | 0 | 5.2 | 13.0 | 0.00 | 0.00 | 0.00 | 36 | 1014.9 |
| 20260506205024 | 68 | 74 | 4.3 | 9.6 | 0.00 | 0.00 | 0.00 | 35 | 1015.0 |
| 20260506204524 | 68 | 60 | 2.6 | 8.7 | 0.00 | 0.00 | 0.00 | 35 | 1015.1 |
| 20260506204019 | 69 | 61 | 3.5 | 7.8 | 0.00 | 0.00 | 0.00 | 36 | 1015.1 |
| 20260506203516 | 68 | 86 | 5.2 | 9.6 | 0.00 | 0.00 | 0.00 | 36 | 1015.3 |
| 20260506203247 | 68 | 143 | 5.2 | 9.6 | 0.00 | 0.00 | 0.00 | 36 | 1015.4 |
| 20260506202744 | 68 | 120 | 4.3 | 9.6 | 0.00 | 0.00 | 0.00 | 36 | 1015.5 |
| 20260506202244 | 67 | 4 | 4.3 | 9.6 | 0.00 | 0.00 | 0.00 | 37 | 1015.5 |
| 20260506201513 | 67 | 108 | 4.3 | 9.6 | 0.00 | 0.00 | 0.00 | 37 | 1015.5 |
| 20260506201013 | 67 | 87 | 5.2 | 10.4 | 0.00 | 0.00 | 0.00 | 38 | 1015.5 |
| 20260506200512 | 66 | 91 | 4.3 | 10.4 | 0.00 | 0.00 | 0.00 | 38 | 1015.6 |
| 20260506200008 | 66 | 97 | 4.3 | 9.6 | 0.00 | 0.00 | 0.00 | 38 | 1015.5 |
| 20260506195506 | 66 | 93 | 4.3 | 7.0 | 0.00 | 0.00 | 0.00 | 38 | 1015.6 |
| 20260506195008 | 65 | 100 | 5.2 | 13.0 | 0.00 | 0.00 | 0.00 | 39 | 1015.4 |
| 20260506194503 | 65 | 129 | 4.3 | 13.0 | 0.00 | 0.00 | 0.00 | 39 | 1015.7 |
| 20260506194000 | 65 | 96 | 4.3 | 8.7 | 0.00 | 0.00 | 0.00 | 39 | 1015.6 |
| 20260506193457 | 65 | 103 | 6.1 | 10.4 | 0.00 | 0.00 | 0.00 | 39 | 1015.5 |
| 20260506192951 | 65 | 98 | 5.2 | 12.2 | 0.00 | 0.00 | 0.00 | 39 | 1015.6 |
| 20260506192449 | 64 | 141 | 3.5 | 12.2 | 0.00 | 0.00 | 0.00 | 40 | 1015.8 |
| 20260506191949 | 65 | 36 | 2.6 | 7.0 | 0.00 | 0.00 | 0.00 | 39 | 1015.8 |
| 20260506191447 | 64 | 97 | 3.5 | 7.8 | 0.00 | 0.00 | 0.00 | 40 | 1016.1 |
| 20260506190947 | 64 | 100 | 5.2 | 10.4 | 0.00 | 0.00 | 0.00 | 40 | 1016.2 |
| 20260506190715 | 63 | 0 | 5.2 | 10.4 | 0.00 | 0.00 | 0.00 | 41 | 1016.3 |
| 20260506185944 | 63 | 96 | 3.5 | 8.7 | 0.00 | 0.00 | 0.00 | 42 | 1016.2 |
| 20260506185444 | 63 | 89 | 3.5 | 7.0 | 0.00 | 0.00 | 0.00 | 42 | 1016.4 |
| 20260506184942 | 63 | 90 | 4.3 | 7.8 | 0.00 | 0.00 | 0.00 | 41 | 1016.3 |
| 20260506184440 | 64 | 0 | 4.3 | 7.8 | 0.00 | 0.00 | 0.00 | 41 | 1016.4 |
| 20260506183941 | 64 | 53 | 2.6 | 7.8 | 0.00 | 0.00 | 0.00 | 40 | 1016.7 |
| 20260506183443 | 64 | 113 | 3.5 | 9.6 | 0.00 | 0.00 | 0.00 | 42 | 1016.7 |
| 20260506182940 | 64 | 118 | 5.2 | 9.6 | 0.00 | 0.00 | 0.00 | 41 | 1016.9 |
| 20260506182440 | 64 | 117 | 4.3 | 9.6 | 0.00 | 0.00 | 0.00 | 42 | 1017.0 |
| 20260506181936 | 64 | 125 | 3.5 | 8.7 | 0.00 | 0.00 | 0.00 | 44 | 1017.1 |
| 20260506181434 | 63 | 123 | 5.2 | 11.3 | 0.00 | 0.00 | 0.00 | 44 | 1017.1 |
| 20260506180934 | 63 | 108 | 4.3 | 11.3 | 0.00 | 0.00 | 0.00 | 44 | 1017.2 |
| 20260506180705 | 63 | 96 | 3.5 | 7.8 | 0.00 | 0.00 | 0.00 | 44 | 1017.2 |
| 20260506180546 | 63 | 101 | 4.3 | 8.7 | 0.00 | 0.00 | 0.00 | 44 | 1017.3 |
| 20260506175432 | 63 | 96 | 3.5 | 8.7 | 0.00 | 0.00 | 0.00 | 45 | 1017.2 |
| 20260506174932 | 63 | 203 | 3.5 | 7.8 | 0.00 | 0.00 | 0.00 | 46 | 1017.3 |
| 20260506174431 | 62 | 107 | 3.5 | 8.7 | 0.00 | 0.00 | 0.00 | 47 | 1017.5 |
| 20260506173930 | 62 | 150 | 3.5 | 8.7 | 0.00 | 0.00 | 0.00 | 49 | 1017.6 |
| 20260506173431 | 60 | 60 | 2.6 | 8.7 | 0.00 | 0.00 | 0.00 | 50 | 1017.8 |
| 20260506172927 | 60 | 79 | 3.5 | 8.7 | 0.00 | 0.00 | 0.00 | 49 | 1018.1 |
| 20260506172657 | 60 | 97 | 4.3 | 9.6 | 0.00 | 0.00 | 0.00 | 51 | 1017.7 |
| 20260506171924 | 60 | 126 | 5.2 | 9.6 | 0.00 | 0.00 | 0.00 | 51 | 1017.9 |
| 20260506171425 | 60 | 0 | 3.5 | 8.7 | 0.00 | 0.00 | 0.00 | 51 | 1017.9 |
| 20260506170923 | 60 | 176 | 2.6 | 7.0 | 0.00 | 0.00 | 0.00 | 52 | 1017.9 |
| 20260506170417 | 58 | 176 | 3.5 | 7.8 | 0.00 | 0.00 | 0.00 | 54 | 1018.0 |
| 20260506165915 | 57 | 69 | 4.3 | 7.8 | 0.00 | 0.00 | 0.00 | 54 | 1018.0 |
| 20260506165638 | 58 | 0 | 3.5 | 7.8 | 0.00 | 0.00 | 0.00 | 53 | 1018.0 |
| 20260506164906 | 58 | 0 | 2.6 | 7.8 | 0.00 | 0.00 | 0.00 | 54 | 1018.1 |
| 20260506164404 | 58 | 0 | 2.6 | 7.8 | 0.00 | 0.00 | 0.00 | 56 | 1018.0 |
| 20260506164135 | 57 | 113 | 2.6 | 7.8 | 0.00 | 0.00 | 0.00 | 58 | 1018.1 |
| 20260506163407 | 55 | 33 | 1.7 | 3.5 | 0.00 | 0.00 | 0.00 | 62 | 1018.0 |
| 20260506163403 | 56 | 84 | 1.7 | 4.3 | 0.00 | 0.00 | 0.00 | 61 | 1018.1 |
| 20260506162403 | 54 | 32 | 2.6 | 7.8 | 0.00 | 0.00 | 0.00 | 65 | 1017.9 |
| 20260506161852 | 53 | 33 | 3.5 | 7.8 | 0.00 | 0.00 | 0.00 | 64 | 1018.1 |
| 20260506161624 | 53 | 37 | 2.6 | 6.1 | 0.00 | 0.00 | 0.00 | 65 | 1018.2 |
| 20260506160852 | 53 | 89 | 2.6 | 5.2 | 0.00 | 0.00 | 0.00 | 65 | 1018.1 |
| 20260506160351 | 53 | 91 | 2.6 | 6.1 | 0.00 | 0.00 | 0.00 | 67 | 1018.1 |